Regional Weather Roundup
Issued by NWS

Home | Current Version | Previous Version | Text Only | Print | Product List | Glossary Off
Versions: 1 2 3 4 5 6 7 8 9 10 11 12 13 14 15 16 17 18 19 20 21 22 23 24 25 26 27 28 29 30 31 32 33 34 35 36 37 38 39 40 41 42 43 44 45 46 47 48 49 50

000
ASUS43 KIND 271659
RWRIN

WEATHER ROUNDUP FOR INDIANA
NATIONAL WEATHER SERVICE INDIANAPOLIS IN
100 PM EDT SAT MAY 27 2017

NOTE: "FAIR" INDICATES FEW OR NO CLOUDS BELOW 12,000 FEET WITH NO
SIGNIFICANT WEATHER AND/OR OBSTRUCTIONS TO VISIBILITY.

* - STATION DOES NOT REPORT WEATHER SUCH AS PRECIPITATION OR FOG.

+ - STATION NOT QUALITY CONTROLLED BY THE NATIONAL WEATHER SERVICE.
    USE DATA WITH CAUTION...ESPECIALLY DEWPOINT AND RELATIVE
    HUMIDITY OBSERVATIONS.

INZ001>003-010>013-019-020-271800-
NORTHWEST INDIANA

CITY           SKY/WX    TMP DP  RH WIND       PRES   REMARKS
GARY /AIRPORT/ PTSUNNY   63  54  72 NE6       29.92S
MICHIGAN CITY+ CLOUDY    66  61  82 N7        29.91S
MONTICELLO +   CLOUDY    64  60  86 N3        29.90R
RENSSELAER +   CLOUDY    68  59  73 N5        29.91R

$$

LMZ046-743>745-271800-
SOUTHERN LAKE MICHIGAN

STATION/POSITION TIME  TEMP    WIND        PRES    WAVE
                       AIR SEA DIR/SP/G            HT
                 (UTC) (F)     (DEG/KT/KT) (MB)    (FT)
BURNS HARBOR     1640   53     360/  3/  4 1013.5F
MICHIGAN CITY    1610   55     340/  5/  5   N/A
5NW MICH CITY    1650   52 55  320/  2/  4   N/A     1

$$

INZ004-005-014>016-021>024-271800-
NORTH CENTRAL INDIANA

CITY           SKY/WX    TMP DP  RH WIND       PRES   REMARKS
ELKHART        PTSUNNY   68  59  73 E5        29.90F
GOSHEN         CLOUDY    69  60  73 NE6       29.90S
SOUTH BEND     CLOUDY    68  62  81 E6        29.90F

$$

INZ006>009-017-018-025>027-271800-
NORTHEAST INDIANA

CITY           SKY/WX    TMP DP  RH WIND       PRES   REMARKS
FORT WAYNE     CLOUDY    70  62  76 NE9       29.89S
KENDALLVILLE + CLOUDY    69  61  76 E6        29.90F

$$

INZ028-029-035-036-043>045-051>053-271800-
WEST CENTRAL INDIANA

CITY           SKY/WX    TMP DP  RH WIND       PRES   REMARKS
CRAWFORDSVL +  CLOUDY   -30 -30 100 CALM      29.92R
GREENCASTLE +  PTSUNNY   72  61  68 N5        29.91S
LAFAYETTE      CLOUDY    66  62  87 VRB5      29.91R
TERRE HAUTE    PTSUNNY   74  62  66 N3        29.90S

$$

INZ030>032-037>040-046>048-054>057-064-065-271800-
CENTRAL INDIANA

CITY           SKY/WX    TMP DP  RH WIND       PRES   REMARKS
COLUMBUS       PTSUNNY   75  64  69 SW3       29.89R
GREENWOOD *+   MOSUNNY   74  64  71 NW3       29.90S
INDIANAPOLIS   MOSUNNY   73  63  70 VRB7      29.90R
-EAGLE CREEK   CLOUDY    73  62  68 N5        29.90R
KOKOMO +       CLOUDY    70  64  81 N7        29.91R
SHELBYVILLE    PTSUNNY   80  66  62 NW9       29.87S

$$

INZ033-034-041-042-049-050-058-059-271800-
EAST CENTRAL INDIANA

CITY           SKY/WX    TMP DP  RH WIND       PRES   REMARKS
MUNCIE         CLOUDY    73  64  73 NW7       29.89R
RICHMOND +     MOSUNNY   73  64  73 W8        29.90S HAZE

$$

INZ060-061-067>069-081>083-085>088-271800-
SOUTHWEST INDIANA

CITY           SKY/WX    TMP DP  RH WIND       PRES   REMARKS
EVANSVILLE     CLOUDY    82  69  64 S10G17    29.89R
HUNTINGBURG *+ PTSUNNY   80  72  76 S8        29.89R

$$

INZ062-063-066-070>080-084-089>092-271800-
SOUTH CENTRAL AND SOUTHEAST INDIANA

CITY           SKY/WX    TMP DP  RH WIND       PRES   REMARKS
BLOOMINGTON    PTSUNNY   79  62  56 W9        29.89S
MADISON *+     CLOUDY    79  68  69 SW8       29.91S
SEYMOUR +      PTSUNNY   81  68  65 W9        29.88S

$$




USA.gov is the U.S. government's official web portal to all federal, state and local government web resources and services.